Year,Month,Day,Hour,Minute,Value (Times are PST for temperature in C)
2011,10,19,00,00,9.30
2011,10,19,00,01,9.30
2011,10,19,00,02,9.30
2011,10,19,00,03,9.20
2011,10,19,00,04,9.20
2011,10,19,00,05,9.20
2011,10,19,00,06,9.20
2011,10,19,00,07,9.20
2011,10,19,00,08,9.20
2011,10,19,00,09,9.10
2011,10,19,00,10,9.10
2011,10,19,00,11,9.10
2011,10,19,00,12,9.10
2011,10,19,00,13,9.10
2011,10,19,00,14,9.10
2011,10,19,00,15,9.10
2011,10,19,00,16,9.10
2011,10,19,00,17,9.10
2011,10,19,00,18,9.10
2011,10,19,00,19,9.00
2011,10,19,00,20,9.00
2011,10,19,00,21,9.00
2011,10,19,00,22,9.00
2011,10,19,00,23,9.00
2011,10,19,00,24,8.90
2011,10,19,00,25,8.90
2011,10,19,00,26,8.90
2011,10,19,00,27,8.90
2011,10,19,00,28,8.90
2011,10,19,00,29,8.90
2011,10,19,00,30,8.90
2011,10,19,00,31,8.90
2011,10,19,00,32,8.90
2011,10,19,00,33,8.80
2011,10,19,00,34,8.80
2011,10,19,00,35,8.80
2011,10,19,00,36,8.80
2011,10,19,00,37,8.80
2011,10,19,00,38,8.80
2011,10,19,00,39,8.80
2011,10,19,00,40,8.80
2011,10,19,00,41,8.70
2011,10,19,00,42,8.70
2011,10,19,00,43,8.70
2011,10,19,00,44,8.70
2011,10,19,00,45,8.70
2011,10,19,00,46,8.70
2011,10,19,00,47,8.70
2011,10,19,00,48,8.70
2011,10,19,00,49,8.70
2011,10,19,00,50,8.60
2011,10,19,00,51,8.60
2011,10,19,00,52,8.60
2011,10,19,00,53,8.60
2011,10,19,00,54,8.60
2011,10,19,00,55,8.60
2011,10,19,00,56,8.60
2011,10,19,00,57,8.50
2011,10,19,00,58,8.50
2011,10,19,00,59,8.50
2011,10,19,01,00,8.40
2011,10,19,01,01,8.40
2011,10,19,01,02,8.40
2011,10,19,01,03,8.40
2011,10,19,01,04,8.40
2011,10,19,01,05,8.40
2011,10,19,01,06,8.30
2011,10,19,01,07,8.30
2011,10,19,01,08,8.30
2011,10,19,01,09,8.30
2011,10,19,01,10,8.30
2011,10,19,01,11,8.30
2011,10,19,01,12,8.30
2011,10,19,01,13,8.20
2011,10,19,01,14,8.20
2011,10,19,01,15,8.20
2011,10,19,01,16,8.20
2011,10,19,01,17,8.20
2011,10,19,01,18,8.20
2011,10,19,01,19,8.20
2011,10,19,01,20,8.20
2011,10,19,01,21,8.20
2011,10,19,01,22,8.20
2011,10,19,01,23,8.20
2011,10,19,01,24,8.20
2011,10,19,01,25,8.10
2011,10,19,01,26,8.10
2011,10,19,01,27,8.10
2011,10,19,01,28,8.10
2011,10,19,01,29,8.10
2011,10,19,01,30,8.10
2011,10,19,01,31,8.10
2011,10,19,01,32,8.10
2011,10,19,01,33,8.00
2011,10,19,01,34,8.00
2011,10,19,01,35,8.00
2011,10,19,01,36,8.00
2011,10,19,01,37,7.90
2011,10,19,01,38,7.90
2011,10,19,01,39,7.90
2011,10,19,01,40,7.90
2011,10,19,01,41,7.90
2011,10,19,01,42,7.90
2011,10,19,01,43,7.90
2011,10,19,01,44,7.90
2011,10,19,01,45,7.90
2011,10,19,01,46,7.90
2011,10,19,01,47,7.90
2011,10,19,01,48,7.90
2011,10,19,01,49,7.90
2011,10,19,01,50,7.90
2011,10,19,01,51,7.80
2011,10,19,01,52,7.90
2011,10,19,01,53,7.80
2011,10,19,01,54,7.80
2011,10,19,01,55,7.80
2011,10,19,01,56,7.80
2011,10,19,01,57,7.80
2011,10,19,01,58,7.80
2011,10,19,01,59,7.80
2011,10,19,02,00,7.80
2011,10,19,02,01,7.90
2011,10,19,02,02,7.90
2011,10,19,02,03,7.90
2011,10,19,02,04,7.90
2011,10,19,02,05,7.90
2011,10,19,02,06,7.90
2011,10,19,02,07,7.90
2011,10,19,02,08,7.90
2011,10,19,02,09,7.90
2011,10,19,02,10,7.90
2011,10,19,02,11,7.90
2011,10,19,02,12,7.90
2011,10,19,02,13,7.90
2011,10,19,02,14,7.90
2011,10,19,02,15,7.90
2011,10,19,02,16,7.90
2011,10,19,02,17,7.90
2011,10,19,02,18,7.90
2011,10,19,02,19,7.90
2011,10,19,02,20,7.90
2011,10,19,02,21,7.90
2011,10,19,02,22,7.90
2011,10,19,02,23,7.90
2011,10,19,02,24,7.90
2011,10,19,02,25,7.90
2011,10,19,02,26,7.90
2011,10,19,02,27,7.90
2011,10,19,02,28,7.90
2011,10,19,02,29,7.90
2011,10,19,02,30,7.90
2011,10,19,02,31,7.90
2011,10,19,02,32,7.90
2011,10,19,02,33,8.00
2011,10,19,02,34,8.00
2011,10,19,02,35,7.90
2011,10,19,02,36,8.00
2011,10,19,02,37,8.00
2011,10,19,02,38,8.00
2011,10,19,02,39,8.00
2011,10,19,02,40,7.90
2011,10,19,02,41,7.90
2011,10,19,02,42,8.00
2011,10,19,02,43,7.90
2011,10,19,02,44,7.90
2011,10,19,02,45,7.90
2011,10,19,02,46,7.90
2011,10,19,02,47,7.90
2011,10,19,02,48,7.90
2011,10,19,02,49,7.90
2011,10,19,02,50,7.90
2011,10,19,02,51,7.90
2011,10,19,02,52,7.90
2011,10,19,02,53,8.00
2011,10,19,02,54,7.90
2011,10,19,02,55,7.90
2011,10,19,02,56,7.90
2011,10,19,02,57,8.00
2011,10,19,02,58,8.00
2011,10,19,02,59,8.00
2011,10,19,03,00,8.00
2011,10,19,03,01,8.00
2011,10,19,03,02,8.00
2011,10,19,03,06,8.00
2011,10,19,03,07,8.00
2011,10,19,03,08,8.00
2011,10,19,03,09,8.00
2011,10,19,03,10,8.00
2011,10,19,03,11,8.00
2011,10,19,03,12,8.00
2011,10,19,03,13,8.00
2011,10,19,03,14,8.00
2011,10,19,03,15,8.00
2011,10,19,03,16,8.00
2011,10,19,03,17,8.00
2011,10,19,03,18,8.00
2011,10,19,03,19,8.00
2011,10,19,03,20,8.00
2011,10,19,03,21,8.00
2011,10,19,03,22,8.00
2011,10,19,03,23,8.00
2011,10,19,03,24,8.00
2011,10,19,03,25,8.00
2011,10,19,03,26,8.00
2011,10,19,03,27,8.00
2011,10,19,03,28,7.90
2011,10,19,03,29,7.90
2011,10,19,03,30,7.90
2011,10,19,03,31,7.90
2011,10,19,03,32,7.90
2011,10,19,03,33,7.90
2011,10,19,03,34,7.90
2011,10,19,03,35,7.90
2011,10,19,03,36,7.80
2011,10,19,03,37,7.80
2011,10,19,03,38,7.80
2011,10,19,03,39,7.80
2011,10,19,03,40,7.80
2011,10,19,03,41,7.80
2011,10,19,03,42,7.70
2011,10,19,03,43,7.70
2011,10,19,03,44,7.70
2011,10,19,03,45,7.70
2011,10,19,03,46,7.70
2011,10,19,03,47,7.70
2011,10,19,03,48,7.70
2011,10,19,03,49,7.70
2011,10,19,03,50,7.60
2011,10,19,03,51,7.60
2011,10,19,03,52,7.60
2011,10,19,03,53,7.60
2011,10,19,03,54,7.60
2011,10,19,03,55,7.60
2011,10,19,03,56,7.60
2011,10,19,03,57,7.60
2011,10,19,03,58,7.50
2011,10,19,03,59,7.50
2011,10,19,04,00,7.50
2011,10,19,04,01,7.50
2011,10,19,04,02,7.50
2011,10,19,04,03,7.50
2011,10,19,04,04,7.40
2011,10,19,04,05,7.40
2011,10,19,04,06,7.40
2011,10,19,04,07,7.40
2011,10,19,04,08,7.40
2011,10,19,04,09,7.40
2011,10,19,04,10,7.40
2011,10,19,04,11,7.40
2011,10,19,04,12,7.40
2011,10,19,04,13,7.40
2011,10,19,04,14,7.40
2011,10,19,04,15,7.30
2011,10,19,04,16,7.30
2011,10,19,04,17,7.30
2011,10,19,04,18,7.30
2011,10,19,04,19,7.30
2011,10,19,04,20,7.30
2011,10,19,04,21,7.30
2011,10,19,04,22,7.30
2011,10,19,04,23,7.30
2011,10,19,04,24,7.20
2011,10,19,04,25,7.20
2011,10,19,04,26,7.20
2011,10,19,04,27,7.20
2011,10,19,04,28,7.20
2011,10,19,04,29,7.20
2011,10,19,04,30,7.20
2011,10,19,04,31,7.20
2011,10,19,04,32,7.20
2011,10,19,04,33,7.10
2011,10,19,04,34,7.10
2011,10,19,04,35,7.10
2011,10,19,04,36,7.10
2011,10,19,04,37,7.10
2011,10,19,04,38,7.00
2011,10,19,04,39,7.00
2011,10,19,04,40,7.00
2011,10,19,04,41,7.00
2011,10,19,04,42,7.00
2011,10,19,04,43,7.00
2011,10,19,04,44,6.90
2011,10,19,04,45,6.90
2011,10,19,04,46,6.90
2011,10,19,04,47,6.90
2011,10,19,04,48,6.90
2011,10,19,04,49,6.90
2011,10,19,04,50,6.90
2011,10,19,04,51,6.90
2011,10,19,04,52,6.80
2011,10,19,04,53,6.80
2011,10,19,04,54,6.80
2011,10,19,04,55,6.80
2011,10,19,04,56,6.80
2011,10,19,04,57,6.80
2011,10,19,04,58,6.80
2011,10,19,04,59,6.80
2011,10,19,05,00,6.80
2011,10,19,05,01,6.70
2011,10,19,05,02,6.70
2011,10,19,05,03,6.70
2011,10,19,05,04,6.70
2011,10,19,05,05,6.60
2011,10,19,05,06,6.60
2011,10,19,05,07,6.60
2011,10,19,05,08,6.60
2011,10,19,05,09,6.60
2011,10,19,05,10,6.60
2011,10,19,05,11,6.60
2011,10,19,05,12,6.60
2011,10,19,05,13,6.60
2011,10,19,05,14,6.60
2011,10,19,05,15,6.60
2011,10,19,05,16,6.60
2011,10,19,05,17,6.60
2011,10,19,05,18,6.60
2011,10,19,05,19,6.60
2011,10,19,05,20,6.50
2011,10,19,05,21,6.50
2011,10,19,05,22,6.50
2011,10,19,05,23,6.50
2011,10,19,05,24,6.50
2011,10,19,05,25,6.50
2011,10,19,05,26,6.50
2011,10,19,05,27,6.50
2011,10,19,05,28,6.40
2011,10,19,05,29,6.40
2011,10,19,05,30,6.40
2011,10,19,05,31,6.40
2011,10,19,05,32,6.40
2011,10,19,05,33,6.40
2011,10,19,05,34,6.40
2011,10,19,05,35,6.40
2011,10,19,05,36,6.40
2011,10,19,05,37,6.40
2011,10,19,05,38,6.40
2011,10,19,05,39,6.40
2011,10,19,05,40,6.40
2011,10,19,05,41,6.40
2011,10,19,05,42,6.40
2011,10,19,05,43,6.30
2011,10,19,05,44,6.30
2011,10,19,05,45,6.30
2011,10,19,05,46,6.30
2011,10,19,05,47,6.30
2011,10,19,05,48,6.20
2011,10,19,05,49,6.20
2011,10,19,05,50,6.20
2011,10,19,05,51,6.20
2011,10,19,05,52,6.20
2011,10,19,05,53,6.20
2011,10,19,05,54,6.20
2011,10,19,05,55,6.20
2011,10,19,05,56,6.10
2011,10,19,05,57,6.10
2011,10,19,05,58,6.10
2011,10,19,05,59,6.10
2011,10,19,06,00,6.10
2011,10,19,06,01,6.00
2011,10,19,06,02,6.00
2011,10,19,06,03,6.00
2011,10,19,06,04,6.00
2011,10,19,06,05,5.90
2011,10,19,06,06,5.90
2011,10,19,06,07,5.90
2011,10,19,06,08,5.90
2011,10,19,06,09,5.90
2011,10,19,06,10,5.90
2011,10,19,06,11,5.90
2011,10,19,06,12,5.90
2011,10,19,06,13,5.90
2011,10,19,06,14,5.90
2011,10,19,06,15,5.90
2011,10,19,06,16,5.90
2011,10,19,06,17,5.90
2011,10,19,06,18,5.90
2011,10,19,06,19,5.90
2011,10,19,06,20,5.90
2011,10,19,06,21,5.90
2011,10,19,06,22,5.90
2011,10,19,06,23,5.90
2011,10,19,06,24,5.90
2011,10,19,06,25,6.00
2011,10,19,06,26,6.00
2011,10,19,06,27,6.00
2011,10,19,06,28,6.00
2011,10,19,06,29,6.00
2011,10,19,06,30,6.00
2011,10,19,06,31,6.00
2011,10,19,06,32,6.00
2011,10,19,06,33,6.00
2011,10,19,06,34,6.00
2011,10,19,06,35,6.00
2011,10,19,06,36,6.00
2011,10,19,06,37,6.00
2011,10,19,06,38,6.00
2011,10,19,06,39,6.10
2011,10,19,06,40,6.10
2011,10,19,06,41,6.10
2011,10,19,06,42,6.10
2011,10,19,06,43,6.10
2011,10,19,06,44,6.20
2011,10,19,06,45,6.20
2011,10,19,06,46,6.20
2011,10,19,06,47,6.30
2011,10,19,06,48,6.30
2011,10,19,06,49,6.30
2011,10,19,06,50,6.30
2011,10,19,06,51,6.30
2011,10,19,06,52,6.30
2011,10,19,06,53,6.30
2011,10,19,06,54,6.30
2011,10,19,06,55,6.30
2011,10,19,06,56,6.30
2011,10,19,06,57,6.30
2011,10,19,06,58,6.30
2011,10,19,06,59,6.30
2011,10,19,07,00,6.30
2011,10,19,07,01,6.30
2011,10,19,07,02,6.20
2011,10,19,07,03,6.20
2011,10,19,07,04,6.20
2011,10,19,07,05,6.20
2011,10,19,07,06,6.20
2011,10,19,07,07,6.20
2011,10,19,07,08,6.20
2011,10,19,07,09,6.10
2011,10,19,07,10,6.10
2011,10,19,07,11,6.10
2011,10,19,07,12,6.10
2011,10,19,07,13,6.10
2011,10,19,07,14,6.10
2011,10,19,07,15,6.10
2011,10,19,07,16,6.10
2011,10,19,07,17,6.00
2011,10,19,07,18,6.10
2011,10,19,07,19,6.10
2011,10,19,07,20,6.00
2011,10,19,07,21,6.00
2011,10,19,07,22,6.00
2011,10,19,07,23,6.00
2011,10,19,07,24,6.00
2011,10,19,07,25,6.00
2011,10,19,07,26,6.00
2011,10,19,07,27,6.00
2011,10,19,07,28,6.00
2011,10,19,07,29,6.00
2011,10,19,07,30,6.00
2011,10,19,07,31,6.00
2011,10,19,07,32,6.00
2011,10,19,07,33,6.00
2011,10,19,07,34,6.00
2011,10,19,07,35,6.00
2011,10,19,07,36,6.00
2011,10,19,07,37,6.00
2011,10,19,07,38,6.00
2011,10,19,07,39,6.00
2011,10,19,07,40,6.00
2011,10,19,07,41,6.00
2011,10,19,07,42,5.90
2011,10,19,07,43,5.90
2011,10,19,07,44,5.90
2011,10,19,07,45,5.90
2011,10,19,07,46,6.00
2011,10,19,07,47,6.00
2011,10,19,07,48,6.00
2011,10,19,07,49,6.00
2011,10,19,07,50,6.00
2011,10,19,07,51,6.00
2011,10,19,07,52,6.00
2011,10,19,07,53,6.00
2011,10,19,07,54,6.10
2011,10,19,07,55,6.10
2011,10,19,07,56,6.20
2011,10,19,07,57,6.20
2011,10,19,07,58,6.20
2011,10,19,07,59,6.20
2011,10,19,08,00,6.20
2011,10,19,08,01,6.30
2011,10,19,08,02,6.30
2011,10,19,08,03,6.30
2011,10,19,08,04,6.40
2011,10,19,08,05,6.50
2011,10,19,08,06,6.50
2011,10,19,08,07,6.60
2011,10,19,08,08,6.60
2011,10,19,08,09,6.60
2011,10,19,08,10,6.70
2011,10,19,08,11,6.70
2011,10,19,08,12,6.70
2011,10,19,08,13,6.70
2011,10,19,08,14,6.80
2011,10,19,08,15,6.80
2011,10,19,08,16,6.80
2011,10,19,08,17,6.80
2011,10,19,08,18,6.90
2011,10,19,08,19,6.90
2011,10,19,08,20,6.90
2011,10,19,08,21,6.90
2011,10,19,08,22,6.90
2011,10,19,08,23,6.90
2011,10,19,08,24,6.80
2011,10,19,08,25,6.80
2011,10,19,08,26,6.80
2011,10,19,08,27,6.80
2011,10,19,08,28,6.80
2011,10,19,08,29,6.70
2011,10,19,08,30,6.70
2011,10,19,08,31,6.70
2011,10,19,08,32,6.70
2011,10,19,08,33,6.70
2011,10,19,08,34,6.70
2011,10,19,08,35,6.70
2011,10,19,08,36,6.70
2011,10,19,08,37,6.70
2011,10,19,08,38,6.70
2011,10,19,08,39,6.70
2011,10,19,08,40,6.70
2011,10,19,08,41,6.70
2011,10,19,08,42,6.80
2011,10,19,08,43,6.80
2011,10,19,08,44,6.80
2011,10,19,08,45,6.90
2011,10,19,08,46,6.90
2011,10,19,08,47,6.90
2011,10,19,08,48,7.00
2011,10,19,08,49,7.00
2011,10,19,08,50,7.20
2011,10,19,08,51,7.30
2011,10,19,08,52,7.40
2011,10,19,08,53,7.60
2011,10,19,08,54,7.70
2011,10,19,08,55,7.90
2011,10,19,08,56,8.00
2011,10,19,08,57,8.10
2011,10,19,08,58,8.20
2011,10,19,08,59,8.30
2011,10,19,09,00,8.30
2011,10,19,09,01,8.40
2011,10,19,09,02,8.50
2011,10,19,09,03,8.50
2011,10,19,09,04,8.60
2011,10,19,09,05,8.70
2011,10,19,09,06,8.80
2011,10,19,09,07,8.90
2011,10,19,09,08,9.00
2011,10,19,09,09,9.10
2011,10,19,09,10,9.20
2011,10,19,09,11,9.30
2011,10,19,09,12,9.40
2011,10,19,09,13,9.50
2011,10,19,09,14,9.60
2011,10,19,09,15,9.70
2011,10,19,09,16,9.80
2011,10,19,09,17,9.90
2011,10,19,09,18,10.00
2011,10,19,09,19,10.10
2011,10,19,09,20,10.20
2011,10,19,09,21,10.30
2011,10,19,09,22,10.30
2011,10,19,09,23,10.40
2011,10,19,09,24,10.50
2011,10,19,09,25,10.60
2011,10,19,09,26,10.60
2011,10,19,09,27,10.70
2011,10,19,09,28,10.80
2011,10,19,09,29,10.80
2011,10,19,09,30,10.90
2011,10,19,09,31,10.90
2011,10,19,09,32,10.90
2011,10,19,09,33,11.00
2011,10,19,09,34,11.00
2011,10,19,09,35,11.00
2011,10,19,09,36,11.10
2011,10,19,09,37,11.10
2011,10,19,09,38,11.10
2011,10,19,09,39,11.10
2011,10,19,09,40,11.20
2011,10,19,09,41,11.20
2011,10,19,09,42,11.30
2011,10,19,09,43,11.30
2011,10,19,09,44,11.30
2011,10,19,09,45,11.30
2011,10,19,09,46,11.30
2011,10,19,09,47,11.40
2011,10,19,09,48,11.40
2011,10,19,09,49,11.40
2011,10,19,09,50,11.30
2011,10,19,09,51,11.30
2011,10,19,09,52,11.30
2011,10,19,09,53,11.30
2011,10,19,09,54,11.40
2011,10,19,09,55,11.50
2011,10,19,09,56,11.50
2011,10,19,09,57,11.60
2011,10,19,09,58,11.70
2011,10,19,09,59,11.80
2011,10,19,10,00,11.90
2011,10,19,10,01,12.00
2011,10,19,10,02,12.00
2011,10,19,10,03,12.10
2011,10,19,10,04,12.20
2011,10,19,10,05,12.20
2011,10,19,10,06,12.30
2011,10,19,10,07,12.30
2011,10,19,10,08,12.30
2011,10,19,10,09,12.30
2011,10,19,10,10,12.30
2011,10,19,10,11,12.30
2011,10,19,10,12,12.30
2011,10,19,10,13,12.30
2011,10,19,10,14,12.20
2011,10,19,10,15,12.20
2011,10,19,10,16,12.10
2011,10,19,10,17,12.10
2011,10,19,10,18,12.10
2011,10,19,10,19,12.10
2011,10,19,10,20,12.10
2011,10,19,10,21,12.10
2011,10,19,10,22,12.10
2011,10,19,10,23,12.10
2011,10,19,10,24,12.10
2011,10,19,10,25,12.10
2011,10,19,10,26,12.10
2011,10,19,10,27,12.10
2011,10,19,10,28,12.10
2011,10,19,10,29,12.00
2011,10,19,10,30,12.00
2011,10,19,10,31,12.00
2011,10,19,10,32,12.00
2011,10,19,10,33,12.10
2011,10,19,10,34,12.10
2011,10,19,10,35,12.10
2011,10,19,10,36,12.20
2011,10,19,10,37,12.20
2011,10,19,10,38,12.20
2011,10,19,10,39,12.20
2011,10,19,10,40,12.10
2011,10,19,10,41,12.10
2011,10,19,10,42,12.10
2011,10,19,10,43,12.00
2011,10,19,10,44,12.00
2011,10,19,10,45,12.00
2011,10,19,10,46,11.90
2011,10,19,10,47,11.90
2011,10,19,10,48,11.90
2011,10,19,10,49,12.00
2011,10,19,10,50,12.00
2011,10,19,10,51,12.00
2011,10,19,10,52,12.00
2011,10,19,10,53,12.10
2011,10,19,10,54,12.10
2011,10,19,10,55,12.20
2011,10,19,10,56,12.20
2011,10,19,10,57,12.20
2011,10,19,10,58,12.20
2011,10,19,10,59,12.20
2011,10,19,11,00,12.20
2011,10,19,11,01,12.10
2011,10,19,11,02,12.10
2011,10,19,11,03,12.10
2011,10,19,11,04,12.10
2011,10,19,11,05,12.10
2011,10,19,11,06,12.10
2011,10,19,11,07,12.10
2011,10,19,11,08,12.10
2011,10,19,11,09,12.20
2011,10,19,11,10,12.20
2011,10,19,11,11,12.30
2011,10,19,11,12,12.30
2011,10,19,11,13,12.30
2011,10,19,11,14,12.40
2011,10,19,11,15,12.40
2011,10,19,11,16,12.50
2011,10,19,11,17,12.60
2011,10,19,11,18,12.60
2011,10,19,11,19,12.70
2011,10,19,11,20,12.80
2011,10,19,11,21,12.80
2011,10,19,11,22,12.90
2011,10,19,11,23,12.90
2011,10,19,11,24,13.00
2011,10,19,11,25,13.10
2011,10,19,11,26,13.10
2011,10,19,11,27,13.20
2011,10,19,11,28,13.20
2011,10,19,11,29,13.20
2011,10,19,11,30,13.30
2011,10,19,11,31,13.30
2011,10,19,11,32,13.30
2011,10,19,11,33,13.30
2011,10,19,11,34,13.30
2011,10,19,11,35,13.30
2011,10,19,11,36,13.30
2011,10,19,11,37,13.30
2011,10,19,11,38,13.40
2011,10,19,11,39,13.40
2011,10,19,11,40,13.50
2011,10,19,11,41,13.60
2011,10,19,11,42,13.60
2011,10,19,11,43,13.70
2011,10,19,11,44,13.80
2011,10,19,11,45,13.80
2011,10,19,11,46,13.90
2011,10,19,11,47,13.90
2011,10,19,11,48,13.90
2011,10,19,11,49,13.90
2011,10,19,11,50,13.80
2011,10,19,11,51,13.70
2011,10,19,11,52,13.70
2011,10,19,11,53,13.60
2011,10,19,11,54,13.50
2011,10,19,11,55,13.40
2011,10,19,11,56,13.40
2011,10,19,11,57,13.30
2011,10,19,11,58,13.20
2011,10,19,11,59,13.10
2011,10,19,12,00,13.00
2011,10,19,12,01,12.90
2011,10,19,12,02,12.80
2011,10,19,12,03,12.70
2011,10,19,12,04,12.60
2011,10,19,12,05,12.50
2011,10,19,12,06,12.40
2011,10,19,12,07,12.30
2011,10,19,12,08,12.30
2011,10,19,12,09,12.30
2011,10,19,12,10,12.30
2011,10,19,12,11,12.30
2011,10,19,12,12,12.30
2011,10,19,12,13,12.30
2011,10,19,12,14,12.20
2011,10,19,12,15,12.30
2011,10,19,12,16,12.30
2011,10,19,12,17,12.30
2011,10,19,12,18,12.40
2011,10,19,12,19,12.40
2011,10,19,12,20,12.40
2011,10,19,12,21,12.40
2011,10,19,12,22,12.40
2011,10,19,12,23,12.40
2011,10,19,12,24,12.40
2011,10,19,12,25,12.40
2011,10,19,12,26,12.50
2011,10,19,12,27,12.40
2011,10,19,12,28,12.50
2011,10,19,12,29,12.50
2011,10,19,12,30,12.60
2011,10,19,12,31,12.60
2011,10,19,12,32,12.70
2011,10,19,12,33,12.80
2011,10,19,12,34,12.80
2011,10,19,12,35,12.90
2011,10,19,12,36,12.90
2011,10,19,12,37,12.90
2011,10,19,12,38,12.90
2011,10,19,12,39,12.90
2011,10,19,12,40,12.90
2011,10,19,12,41,12.80
2011,10,19,12,42,12.80
2011,10,19,12,43,12.80
2011,10,19,12,44,12.70
2011,10,19,12,45,12.70
2011,10,19,12,46,12.80
2011,10,19,12,47,12.80
2011,10,19,12,48,12.90
2011,10,19,12,49,12.90
2011,10,19,12,50,13.00
2011,10,19,12,51,13.00
2011,10,19,12,52,13.10
2011,10,19,12,53,13.10
2011,10,19,12,54,13.10
2011,10,19,12,55,13.10
2011,10,19,12,56,13.00
2011,10,19,12,57,13.00
2011,10,19,12,58,12.90
2011,10,19,12,59,12.90
2011,10,19,13,00,12.90
2011,10,19,13,01,12.90
2011,10,19,13,02,12.90
2011,10,19,13,03,13.00
2011,10,19,13,04,13.10
2011,10,19,13,05,13.10
2011,10,19,13,06,13.10
2011,10,19,13,07,13.10
2011,10,19,13,08,13.20
2011,10,19,13,09,13.20
2011,10,19,13,10,13.30
2011,10,19,13,11,13.30
2011,10,19,13,12,13.30
2011,10,19,13,13,13.30
2011,10,19,13,14,13.40
2011,10,19,13,15,13.50
2011,10,19,13,16,13.70
2011,10,19,13,17,13.70
2011,10,19,13,18,13.80
2011,10,19,13,19,14.00
2011,10,19,13,20,14.20
2011,10,19,13,21,14.30
2011,10,19,13,22,14.50
2011,10,19,13,23,14.70
2011,10,19,13,24,14.90
2011,10,19,13,25,15.00
2011,10,19,13,26,15.20
2011,10,19,13,27,15.50
2011,10,19,13,28,15.70
2011,10,19,13,29,15.90
2011,10,19,13,30,16.10
2011,10,19,13,31,16.30
2011,10,19,13,32,16.50
2011,10,19,13,33,16.60
2011,10,19,13,34,16.80
2011,10,19,13,35,16.80
2011,10,19,13,36,16.90
2011,10,19,13,37,17.10
2011,10,19,13,38,17.20
2011,10,19,13,39,17.30
2011,10,19,13,40,17.40
2011,10,19,13,41,17.50
2011,10,19,13,42,17.60
2011,10,19,13,43,17.70
2011,10,19,13,44,17.80
2011,10,19,13,45,17.80
2011,10,19,13,46,17.80
2011,10,19,13,47,17.80
2011,10,19,13,48,17.80
2011,10,19,13,49,17.80
2011,10,19,13,50,17.80
2011,10,19,13,51,17.70
2011,10,19,13,52,17.70
2011,10,19,13,53,17.70
2011,10,19,13,54,17.70
2011,10,19,13,55,17.60
2011,10,19,13,56,17.60
2011,10,19,13,57,17.60
2011,10,19,13,58,17.60
2011,10,19,13,59,17.60
2011,10,19,14,00,17.60
2011,10,19,14,01,17.60
2011,10,19,14,02,17.50
2011,10,19,14,03,17.50
2011,10,19,14,04,17.50
2011,10,19,14,05,17.60
2011,10,19,14,06,17.60
2011,10,19,14,07,17.60
2011,10,19,14,08,17.70
2011,10,19,14,09,17.70
2011,10,19,14,10,17.60
2011,10,19,14,11,17.60
2011,10,19,14,12,17.60
2011,10,19,14,13,17.60
2011,10,19,14,14,17.60
2011,10,19,14,15,17.60
2011,10,19,14,16,17.60
2011,10,19,14,17,17.70
2011,10,19,14,18,17.70
2011,10,19,14,19,17.80
2011,10,19,14,20,17.80
2011,10,19,14,21,17.90
2011,10,19,14,22,17.90
2011,10,19,14,23,17.90
2011,10,19,14,24,17.90
2011,10,19,14,25,17.80
2011,10,19,14,26,17.70
2011,10,19,14,27,17.60
2011,10,19,14,28,17.60
2011,10,19,14,29,17.50
2011,10,19,14,30,17.40
2011,10,19,14,31,17.30
2011,10,19,14,32,17.20
2011,10,19,14,33,17.20
2011,10,19,14,34,17.10
2011,10,19,14,35,17.00
2011,10,19,14,36,16.90
2011,10,19,14,37,16.80
2011,10,19,14,38,16.80
2011,10,19,14,39,16.80
2011,10,19,14,40,16.80
2011,10,19,14,41,16.80
2011,10,19,14,42,16.80
2011,10,19,14,43,16.80
2011,10,19,14,44,16.80
2011,10,19,14,45,16.80
2011,10,19,14,46,16.80
2011,10,19,14,47,16.70
2011,10,19,14,48,16.70
2011,10,19,14,49,16.60
2011,10,19,14,50,16.60
2011,10,19,14,51,16.60
2011,10,19,14,52,16.50
2011,10,19,14,53,16.50
2011,10,19,14,54,16.40
2011,10,19,14,55,16.30
2011,10,19,14,56,16.30
2011,10,19,14,57,16.20
2011,10,19,14,58,16.20
2011,10,19,14,59,16.20
2011,10,19,15,00,16.20
2011,10,19,15,01,16.20
2011,10,19,15,02,16.20
2011,10,19,15,03,16.10
2011,10,19,15,04,16.10
2011,10,19,15,05,16.10
2011,10,19,15,06,16.00
2011,10,19,15,07,16.00
2011,10,19,15,08,16.00
2011,10,19,15,09,16.00
2011,10,19,15,10,16.00
2011,10,19,15,11,16.00
2011,10,19,15,12,16.00
2011,10,19,15,13,16.00
2011,10,19,15,14,16.00
2011,10,19,15,15,15.90
2011,10,19,15,16,16.00
2011,10,19,15,17,16.00
2011,10,19,15,18,16.00
2011,10,19,15,19,16.00
2011,10,19,15,20,16.00
2011,10,19,15,21,16.00
2011,10,19,15,22,16.10
2011,10,19,15,23,16.10
2011,10,19,15,24,16.10
2011,10,19,15,25,16.10
2011,10,19,15,26,16.10
2011,10,19,15,27,16.10
2011,10,19,15,28,16.20
2011,10,19,15,29,16.20
2011,10,19,15,30,16.20
2011,10,19,15,31,16.20
2011,10,19,15,32,16.20
2011,10,19,15,33,16.20
2011,10,19,15,34,16.20
2011,10,19,15,35,16.20
2011,10,19,15,36,16.20
2011,10,19,15,37,16.10
2011,10,19,15,38,16.00
2011,10,19,15,39,15.90
2011,10,19,15,40,15.90
2011,10,19,15,41,15.90
2011,10,19,15,42,16.00
2011,10,19,15,43,16.00
2011,10,19,15,44,16.10
2011,10,19,15,45,16.10
2011,10,19,15,46,16.20
2011,10,19,15,47,16.20
2011,10,19,15,48,16.20
2011,10,19,15,49,16.20
2011,10,19,15,50,16.20
2011,10,19,15,51,16.20
2011,10,19,15,52,16.20
2011,10,19,15,53,16.30
2011,10,19,15,54,16.30
2011,10,19,15,55,16.30
2011,10,19,15,56,16.30
2011,10,19,15,57,16.30
2011,10,19,15,58,16.30
2011,10,19,15,59,16.30
2011,10,19,16,00,16.30
2011,10,19,16,01,16.30
2011,10,19,16,02,16.30
2011,10,19,16,03,16.30
2011,10,19,16,04,16.30
2011,10,19,16,05,16.30
2011,10,19,16,06,16.30
2011,10,19,16,07,16.30
2011,10,19,16,08,16.30
2011,10,19,16,09,16.20
2011,10,19,16,10,16.20
2011,10,19,16,11,16.20
2011,10,19,16,12,16.20
2011,10,19,16,13,16.20
2011,10,19,16,14,16.20
2011,10,19,16,15,16.10
2011,10,19,16,16,16.10
2011,10,19,16,17,16.00
2011,10,19,16,18,15.90
2011,10,19,16,19,15.90
2011,10,19,16,20,15.80
2011,10,19,16,21,15.80
2011,10,19,16,22,15.70
2011,10,19,16,23,15.60
2011,10,19,16,24,15.60
2011,10,19,16,25,15.60
2011,10,19,16,26,15.50
2011,10,19,16,27,15.50
2011,10,19,16,28,15.40
2011,10,19,16,29,15.40
2011,10,19,16,30,15.30
2011,10,19,16,31,15.20
2011,10,19,16,32,15.00
2011,10,19,16,33,15.00
2011,10,19,16,34,15.00
2011,10,19,16,35,15.00
2011,10,19,16,36,14.80
2011,10,19,16,37,14.80
2011,10,19,16,38,14.70
2011,10,19,16,39,14.70
2011,10,19,16,40,14.60
2011,10,19,16,41,14.60
2011,10,19,16,42,14.60
2011,10,19,16,43,14.60
2011,10,19,16,44,14.50
2011,10,19,16,45,14.50
2011,10,19,16,46,14.50
2011,10,19,16,47,14.40
2011,10,19,16,48,14.40
2011,10,19,16,49,14.40
2011,10,19,16,50,14.40
2011,10,19,16,51,14.40
2011,10,19,16,52,14.40
2011,10,19,16,53,14.40
2011,10,19,16,54,14.30
2011,10,19,16,55,14.30
2011,10,19,16,56,14.30
2011,10,19,16,57,14.30
2011,10,19,16,58,14.30
2011,10,19,16,59,14.30
2011,10,19,17,00,14.30
2011,10,19,17,01,14.30
2011,10,19,17,02,14.20
2011,10,19,17,03,14.20
2011,10,19,17,04,14.20
2011,10,19,17,05,14.20
2011,10,19,17,06,14.20
2011,10,19,17,07,14.20
2011,10,19,17,08,14.20
2011,10,19,17,09,14.20
2011,10,19,17,10,14.20
2011,10,19,17,11,14.20
2011,10,19,17,12,14.20
2011,10,19,17,13,14.10
2011,10,19,17,14,14.10
2011,10,19,17,15,14.10
2011,10,19,17,16,14.10
2011,10,19,17,17,14.00
2011,10,19,17,18,14.00
2011,10,19,17,19,14.00
2011,10,19,17,20,14.00
2011,10,19,17,21,13.90
2011,10,19,17,22,13.90
2011,10,19,17,23,13.90
2011,10,19,17,24,13.90
2011,10,19,17,25,13.90
2011,10,19,17,26,13.90
2011,10,19,17,27,13.80
2011,10,19,17,28,13.80
2011,10,19,17,29,13.80
2011,10,19,17,30,13.80
2011,10,19,17,31,13.80
2011,10,19,17,32,13.80
2011,10,19,17,33,13.70
2011,10,19,17,34,13.70
2011,10,19,17,35,13.70
2011,10,19,17,36,13.70
2011,10,19,17,37,13.70
2011,10,19,17,38,13.70
2011,10,19,17,39,13.60
2011,10,19,17,40,13.60
2011,10,19,17,41,13.60
2011,10,19,17,42,13.60
2011,10,19,17,43,13.50
2011,10,19,17,44,13.50
2011,10,19,17,45,13.50
2011,10,19,17,46,13.40